Weather History for KDTW - April, 2013

Change the Weather History Date:

Tuesday, April 30, 2013

  Actual Average Record
Temperature  
Mean Temperature 62 °F 54 °F  
Max Temperature 70 °F 65 °F 87 °F (1942)
Min Temperature 53 °F 44 °F 28 °F (1876)
Degree Days  
Heating Degree Days 3 11  
Month to date heating degree days 551 480  
Since 1 July heating degree days 5769 5894  
Cooling Degree Days 0 0  
Month to date cooling degree days 0 6  
Year to date cooling degree days 0 6  
Growing Degree Days 12 (Base 50)    
Moisture  
Dew Point 52 °F    
Average Humidity 74    
Maximum Humidity 93    
Minimum Humidity 55    
Precipitation  
Precipitation T in 0.10 in 0.97 in (1962)
Month to date precipitation 5.29 2.90  
Year to date precipitation 12.31 9.16  
Snow  
Snow 0.00 in 0.00 in T in (1963)
Month to date snowfall 0.1 1.7  
Since 1 July snowfall 47.7 42.5  
Snow Depth 0.00 in    
Sea Level Pressure  
Sea Level Pressure 30.03 in    
Wind  
Wind Speed 8 mph (SSE)    
Max Wind Speed 22 mph    
Max Gust Speed 28 mph    
Visibility 8 miles    
Events Rain    
T = Trace of Precipitation, MM = Missing Value Source: NWS Daily Summary

Daily Weather History Graph

Daily Weather History Graph

Search for Another Location

Airport or City:

Trip Planner

Search our weather history database for the weather conditions in past years. The results will help you decide how hot, cold, wet, or windy it might be!

Date:

Astronomy

Apr. 30, 2013 Rise Set
Actual Time 6:29 AM EDT 8:31 PM EDT
Civil Twilight 5:59 AM EDT 9:02 PM EDT
Nautical Twilight 5:22 AM EDT 9:39 PM EDT
Astronomical Twilight 4:41 AM EDT 10:20 PM EDT
Moon 12:55 AM EDT (4/30) 10:56 AM EDT (4/30)
Length of Visible Light 15h 03m
Length of Day
14h 02m
Waning Gibbous, 70% of the Moon is Illuminated
Apr 30
Waning Gibbous
May 2
Last Quarter
May 9
New
May 18
First Quarter
May 25
Full

Hourly Weather History & Observations

Time (EDT) Temp. Dew Point Humidity Pressure Visibility Wind Dir Wind Speed Gust Speed Precip Events Conditions
12:53 AM 57.9 °F 53.1 °F 84% 29.96 in 7.0 mi SSE 4.6 mph - 0.00 in Rain Light Rain
1:53 AM 57.0 °F 53.1 °F 87% 29.97 in 8.0 mi SSE 5.8 mph - 0.00 in   Overcast
2:53 AM 57.0 °F 53.1 °F 87% 29.98 in 7.0 mi SSE 5.8 mph - N/A   Overcast
3:53 AM 55.9 °F 53.1 °F 90% 29.98 in 4.0 mi SE 4.6 mph - N/A   Mostly Cloudy
4:53 AM 53.1 °F 51.1 °F 93% 29.99 in 3.0 mi SSE 3.5 mph - N/A   Mostly Cloudy
5:48 AM 53.6 °F 51.8 °F 94% 29.99 in 2.5 mi ESE 4.6 mph - N/A   Mostly Cloudy
5:53 AM 54.0 °F 51.1 °F 90% 29.99 in 2.5 mi ESE 4.6 mph - N/A   Mostly Cloudy
6:28 AM 53.6 °F 51.8 °F 94% 29.99 in 3.0 mi SE 5.8 mph - N/A   Scattered Clouds
6:53 AM 54.0 °F 51.1 °F 90% 29.99 in 3.0 mi SE 6.9 mph - N/A   Scattered Clouds
7:33 AM 53.6 °F 51.8 °F 94% 30.01 in 2.5 mi SSE 5.8 mph - N/A   Scattered Clouds
7:49 AM 55.4 °F 51.8 °F 88% 30.03 in 3.0 mi South 5.8 mph - N/A   Scattered Clouds
7:53 AM 55.0 °F 52.0 °F 89% 30.03 in 4.0 mi South 5.8 mph - N/A   Scattered Clouds
8:53 AM 59.0 °F 53.1 °F 81% 30.05 in 9.0 mi South 9.2 mph - N/A   Mostly Cloudy
9:53 AM 64.0 °F 53.1 °F 67% 30.06 in 10.0 mi SSE 6.9 mph - N/A   Mostly Cloudy
10:53 AM 64.9 °F 53.1 °F 65% 30.07 in 10.0 mi SSE 12.7 mph - N/A   Overcast
11:53 AM 64.0 °F 53.1 °F 67% 30.09 in 10.0 mi SSE 10.4 mph - N/A   Overcast
12:53 PM 64.0 °F 52.0 °F 65% 30.08 in 10.0 mi ESE 8.1 mph - N/A   Overcast
1:53 PM 64.9 °F 52.0 °F 63% 30.05 in 10.0 mi SSE 15.0 mph 20.7 mph 0.00 in   Overcast
2:53 PM 69.1 °F 53.1 °F 57% 30.03 in 10.0 mi SSE 16.1 mph 26.5 mph N/A   Overcast
3:53 PM 69.1 °F 53.1 °F 57% 30.02 in 10.0 mi SSE 19.6 mph 27.6 mph N/A   Overcast
4:53 PM 69.1 °F 53.1 °F 57% 30.01 in 10.0 mi SE 15.0 mph 23.0 mph N/A   Mostly Cloudy
5:53 PM 69.1 °F 53.1 °F 57% 30.02 in 10.0 mi SE 9.2 mph - N/A   Mostly Cloudy
6:53 PM 68.0 °F 52.0 °F 56% 30.02 in 10.0 mi SE 9.2 mph - N/A   Mostly Cloudy
7:53 PM 64.9 °F 52.0 °F 63% 30.04 in 10.0 mi SE 6.9 mph - N/A   Mostly Cloudy
8:53 PM 61.0 °F 51.1 °F 70% 30.05 in 10.0 mi SSE 5.8 mph - N/A   Mostly Cloudy
9:53 PM 57.9 °F 51.1 °F 78% 30.07 in 10.0 mi SSE 3.5 mph - N/A   Mostly Cloudy
10:53 PM 57.9 °F 51.1 °F 78% 30.08 in 10.0 mi Calm Calm - N/A   Mostly Cloudy
11:53 PM 57.0 °F 50.0 °F 77% 30.08 in 10.0 mi Calm Calm - N/A   Mostly Cloudy